Effective Sunday, March 17, 2024, the National Weather Service National Data Buoy Center will discontinue its Dial-A-Buoy Interactive Voice Response system. For more information, see Service Change Notice 24-06 (PDF).

Station OKXC1 - 9414776 - Oakland Berth 34, CA Image indicating link to RSS feed of recent meteorological observations for station OKXC1


Conditions at OKXC1 as of
(8:00 pm PST on 02/24/2024)
0400 GMT on 02/25/2024:
     

Click on the graph icon in the table below to see a time series plot of the last five days of that observation.

5-day plot - Wind Direction Wind Direction (WDIR):WNW ( 290 deg true )
5-day plot - Wind Speed Wind Speed (WSPD): 2.9 kts
5-day plot - Wind Gust Wind Gust (GST): 5.1 kts
5-day plot - Atmospheric Pressure Atmospheric Pressure (PRES):30.02 in
5-day plot - Pressure Tendency Pressure Tendency (PTDY):+0.02 in ( Rising )
5-day plot - Air Temperature Air Temperature (ATMP): 58.6 °F
5-day plot - Wind Speed at 10 Meters Wind Speed at 10 meters (WSPD10M): 3.9 kts
5-day plot - Wind Speed at 20 Meters Wind Speed at 20 meters (WSPD20M): 3.9 kts
5-day plot -  Wind Speed, Wind Gust and Atmospheric Pressure Combined plot of Wind Speed, Gust, and Air Pressure
NOS Water Level Observation Network Water Level
Previous observations
TIME
(PST)
5-day plot - Wind Direction
WDIR
 
5-day plot - Wind Speed
WSPD
kts
5-day plot - Wind Gust
GST
kts
5-day plot - Wave Height
WVHT
ft
5-day plot - Dominant Wave Period
DPD
sec
5-day plot - Average Wave Period
APD
sec
5-day plot - Mean Wave Direction
MWD
 
5-day plot - Atmospheric Pressure
PRES
in
5-day plot - Pressure Tendency
PTDY
in
5-day plot - Air Temperature
ATMP
°F
5-day plot - Water Temperature
WTMP
°F
5-day plot - Dew Point
DEWP
°F
5-day plot - Salinity
SAL
psu
5-day plot - Visibility
VIS
nmi
5-day plot - Tide (above MLLW)
TIDE
ft
2024-02-24 07:54 pmWNW 5.1 6.0----30.02- 58.3-----
2024-02-24 07:48 pmWNW 5.1 6.0----30.02- 58.3-----
2024-02-24 07:42 pm NW 5.1 6.0----30.02- 58.5-----
2024-02-24 07:36 pmWNW 6.0 8.0----30.01- 59.0-----
2024-02-24 07:30 pmWNW 7.0 8.9----30.01- 58.8-----
2024-02-24 07:24 pmWNW 6.0 8.0----30.01- 58.8-----
2024-02-24 07:18 pmWNW 6.0 9.9------ 58.8-----
2024-02-24 07:12 pmWNW 8.0 9.9------ 58.6-----
2024-02-24 07:06 pmWNW 8.0 8.9------ 58.6-----
2024-02-24 07:00 pm NW 7.0 8.0----30.01+0.01 58.6-----
2024-02-24 06:54 pmWNW 6.0 7.0----30.01- 58.8-----
2024-02-24 06:48 pmWNW 5.1 7.0----30.01- 59.2-----
2024-02-24 06:42 pmWNW 7.0 8.0----30.01- 59.5-----
2024-02-24 06:36 pmWNW 6.0 9.9----30.01- 59.9-----
2024-02-24 06:30 pmWNW 7.0 8.9----30.01- 59.9-----
2024-02-24 06:24 pmWNW 7.0 8.0----30.01- 60.1-----
2024-02-24 06:18 pm NW 7.0 8.0----30.01-------
2024-02-24 06:12 pm NW 6.0 8.0----30.00-------
2024-02-24 06:06 pm NW 8.0 8.9----30.00-------
2024-02-24 06:00 pm-------30.00-0.01------
2024-02-24 05:54 pm-------30.00-------
2024-02-24 05:48 pm NW 8.9 9.9----30.00-------
2024-02-24 05:42 pm NW 9.9 11.1----30.00-------
2024-02-24 05:36 pm NW 8.0 9.9----29.99-------
2024-02-24 05:30 pm NW 8.9 9.9----29.99- 61.3-----
2024-02-24 05:24 pmWNW 5.1 9.9----29.99- 62.8-----
2024-02-24 05:18 pmNNW 8.9 9.9----29.99- 61.2-----
2024-02-24 05:12 pm NW 8.9 9.9----29.99- 61.3-----
2024-02-24 05:06 pm NW 8.9 9.9----29.99- 61.3-----
2024-02-24 05:00 pm NW 8.0 9.9----30.00-0.03------
2024-02-24 04:54 pm NW 8.0 8.9----30.00-------
2024-02-24 04:48 pm NW 8.0 8.9----30.00-------
2024-02-24 04:42 pm NW 8.0 9.9----30.00-------
2024-02-24 04:36 pm NW 8.0 8.9----30.00-------
2024-02-24 04:30 pm NW 8.9 9.9----30.00-------
2024-02-24 04:24 pm NW 8.0 9.9----30.00-------
2024-02-24 04:18 pm NW 8.9 9.9----30.00- 61.3-----
2024-02-24 04:12 pm NW 8.0 8.9----30.00- 61.0-----
2024-02-24 04:06 pm NW 8.0 8.9----30.00- 61.2-----
2024-02-24 04:00 pm NW 6.0 7.0----30.00-0.03 60.8-----
2024-02-24 03:54 pm NW 7.0 8.0----30.01- 60.6-----
2024-02-24 03:48 pm NW 8.0 8.9----30.01- 61.2-----
2024-02-24 03:42 pm NW 8.0 8.9----30.01- 61.2-----
2024-02-24 03:36 pm NW 8.9 9.9----30.01- 61.2-----
2024-02-24 03:30 pm NW 8.9 8.9----30.01-------
2024-02-24 03:24 pmNNW 8.0 8.9----30.01-------
2024-02-24 03:18 pm NW 6.0 8.0----30.01- 61.0-----
2024-02-24 03:12 pm NW 8.0 8.0----30.01- 61.3-----
2024-02-24 03:06 pm NW 7.0 7.0----30.01- 61.0-----
2024-02-24 03:00 pm NW 6.0 7.0----30.01-0.05 61.0-----
2024-02-24 02:54 pm NW 5.1 6.0----30.01- 60.6-----
2024-02-24 02:48 pmWNW 6.0 7.0----30.02- 60.8-----
2024-02-24 02:42 pm NW 7.0 7.0----30.02- 60.8-----
2024-02-24 02:36 pm NW 7.0 8.0----30.02- 60.8-----
2024-02-24 02:30 pm NW 7.0 8.0----30.02- 60.4-----
2024-02-24 02:24 pm NW 7.0 8.9----30.02- 60.4-----
2024-02-24 02:18 pm NW 8.0 8.0----30.02-------
2024-02-24 02:12 pm NW 8.0 8.0----30.02-------
2024-02-24 02:06 pm NW 7.0 8.0----30.02-------
2024-02-24 02:00 pm NW 8.9 9.9----30.02-0.04------
2024-02-24 01:54 pm NW 8.0 8.9----30.02-------
2024-02-24 01:48 pm NW 8.9 9.9----30.02- 60.3-----
2024-02-24 01:42 pm NW 7.0 8.0----30.02- 60.6-----
2024-02-24 01:36 pm NW 7.0 8.0----30.02- 60.4-----
2024-02-24 01:30 pmWNW 6.0 7.0----30.03- 60.3-----
2024-02-24 01:24 pmWNW 6.0 7.0----30.03- 60.4-----
2024-02-24 01:18 pmWNW 5.1 6.0----30.03- 61.3-----
2024-02-24 01:12 pm W 5.1 6.0----30.03- 61.2-----
2024-02-24 01:06 pmWNW 6.0 6.0----30.03- 60.6-----
2024-02-24 01:00 pm-------30.03-0.04 61.7-----
2024-02-24 12:54 pm-------30.04- 62.1-----
2024-02-24 12:48 pm W 2.9 4.1----30.04-------
2024-02-24 12:42 pmWNW 2.9 4.1----30.04-------
2024-02-24 12:36 pm W 2.9 4.1----30.05-------
2024-02-24 12:30 pmWNW 1.9 2.9------ 61.5-----
2024-02-24 12:24 pmWNW 1.9 2.9------ 62.4-----
2024-02-24 12:18 pm-------30.05- 62.1-----
2024-02-24 12:12 pm-------30.06- 61.5-----
2024-02-24 12:06 pm-------30.06- 61.7-----
2024-02-24 12:00 pm W 4.1 4.1----30.06-0.01 61.2-----
2024-02-24 11:54 am W 2.9 4.1----30.06- 60.4-----
2024-02-24 11:48 amWNW 2.9 2.9----30.06- 60.3-----
2024-02-24 11:42 amWNW 1.9 4.1----30.06- 60.4-----
2024-02-24 11:36 am W 1.9 4.1----30.06- 61.3-----
2024-02-24 11:30 am W 2.9 4.1----30.06- 60.6-----
2024-02-24 11:24 am W 4.1 4.1----30.06- 60.1-----
2024-02-24 11:18 am W 2.9 4.1----30.06- 60.1-----
2024-02-24 11:12 am W 1.9 2.9----30.07- 61.3-----
2024-02-24 11:06 am SW 1.9 2.9----30.06- 61.7-----
2024-02-24 11:00 am SW 1.0 2.9----30.06+0.01------
2024-02-24 10:54 amSSW 2.9 5.1----30.07-------
2024-02-24 10:48 amSSW 4.1 6.0----30.07- 60.3-----
2024-02-24 10:42 amSSW 5.1 7.0----30.07- 61.2-----
2024-02-24 10:36 am S 2.9 4.1----30.07- 60.8-----
2024-02-24 10:30 amSSW 1.9 2.9----30.07- 60.6-----
2024-02-24 10:24 am SW 2.9 4.1----30.07- 59.9-----
2024-02-24 10:18 amWSW 2.9 4.1----30.07- 58.1-----
2024-02-24 10:12 amWNW 2.9 2.9----30.07- 57.6-----
2024-02-24 10:06 am NW 1.9 2.9----30.07- 57.6-----
2024-02-24 10:00 am NW 1.9 2.9----30.07-------
2024-02-24 09:54 amWNW 1.9 2.9----30.07-------
2024-02-24 09:48 am NW 1.9 4.1----30.08-------
2024-02-24 09:42 am NW 2.9 4.1----30.07-------
2024-02-24 09:36 am NW 2.9 4.1----30.07-------
2024-02-24 09:30 am NW 4.1 4.1----30.07- 55.6-----
2024-02-24 09:24 am NW 4.1 4.1----30.07- 55.6-----
2024-02-24 09:18 am NW 4.1 5.1----30.07- 55.4-----
2024-02-24 09:12 am NW 5.1 6.0----30.07- 55.4-----
2024-02-24 09:06 am NW 5.1 7.0----30.07- 55.2-----
2024-02-24 09:00 am NW 7.0 7.0----30.07+0.01 55.0-----
2024-02-24 08:54 amNNW 6.0 8.0----30.07- 55.0-----
2024-02-24 08:48 am NW 7.0 8.0----30.07-------
2024-02-24 08:42 am NW 7.0 8.9----30.06-------
2024-02-24 08:36 am NW 8.0 8.9----30.06-------
2024-02-24 08:30 amNNW 6.0 8.0----30.06-------
2024-02-24 08:24 am NW 8.0 8.9----30.06-------
2024-02-24 08:18 amNNW 8.0 8.9------ 54.9-----
2024-02-24 08:12 amNNW 8.0 8.9------ 54.9-----
2024-02-24 08:06 amNNW 7.0 8.0------ 54.7-----
2024-02-24 08:00 amNNW 6.0 8.0----30.06-------
2024-02-24 07:54 amNNW 6.0 8.9----30.05-------
2024-02-24 07:48 amNNW 6.0 9.9----30.06-------
2024-02-24 07:42 amNNW 8.0 9.9----30.06-------
2024-02-24 07:36 amNNW 8.0 8.9----30.05-------
2024-02-24 07:30 amNNW 7.0 8.9----30.05- 54.3-----
2024-02-24 07:24 amNNW 7.0 8.9----30.05- 54.3-----
2024-02-24 07:18 am NW 7.0 8.9----30.05- 54.3-----
2024-02-24 07:12 amNNW 8.0 9.9----30.05- 54.1-----
2024-02-24 07:06 am NW 8.0 9.9----30.05- 54.1-----
2024-02-24 07:00 amNNW 8.9 9.9------------
2024-02-24 06:54 amNNW 7.0 8.9------------
2024-02-24 06:48 amNNW 7.0 8.9----30.04-------
2024-02-24 06:42 amNNW 8.9 11.1----30.04-------
2024-02-24 06:36 amNNW 8.0 11.1----30.04-------
2024-02-24 06:30 am N 8.9 11.1----30.04- 53.8-----
2024-02-24 06:24 amNNW 8.0 9.9----30.05- 54.0-----
2024-02-24 06:18 am N 7.0 8.9----30.05- 54.0-----
2024-02-24 06:12 am N 7.0 8.9----30.05- 53.8-----
2024-02-24 06:06 amNNW 8.0 9.9----30.06- 53.6-----
2024-02-24 06:00 amNNW 7.0 9.9----30.06+0.00 53.6-----
2024-02-24 05:54 amNNW 7.0 8.0----30.06- 53.6-----
2024-02-24 05:48 amNNW 6.0 7.0------------
2024-02-24 05:42 amNNW 6.0 7.0------------
2024-02-24 05:36 amNNW 5.1 6.0------------
2024-02-24 05:30 amNNW 5.1 6.0----30.05-------
2024-02-24 05:24 am N 5.1 6.0----30.05-------
2024-02-24 05:18 am N 5.1 6.0----30.05-------
2024-02-24 05:12 am N 6.0 7.0----30.05-------
2024-02-24 05:06 amNNW 5.1 5.1----30.05-------
2024-02-24 05:00 am--------- 53.1-----
2024-02-24 04:54 am--------- 53.1-----
2024-02-24 04:48 am N 5.1 6.0----30.05- 53.1-----
2024-02-24 04:42 amNNW 5.1 6.0----30.05- 53.2-----
2024-02-24 04:36 amNNW 5.1 6.0----30.05- 52.5-----
2024-02-24 04:30 am N 5.1 7.0----30.05-------
2024-02-24 04:24 am N 6.0 7.0----30.05-------
2024-02-24 04:18 am N 4.1 8.0----30.05-------
2024-02-24 04:12 am N 7.0 8.9----30.05-------
2024-02-24 04:06 am N 6.0 8.0----30.05-------
2024-02-24 04:00 am N 7.0 8.0----30.05-0.02 54.0-----
2024-02-24 03:54 amNNW 6.0 7.0----30.05- 54.1-----
2024-02-24 03:48 amNNW 5.1 6.0----30.05-------
2024-02-24 03:42 am N 5.1 5.1----30.06-------
2024-02-24 03:36 am N 4.1 8.0----30.06-------
2024-02-24 03:30 am N 5.1 6.0----30.05- 54.1-----
2024-02-24 03:24 am N 5.1 6.0----30.05- 54.5-----
2024-02-24 03:18 am N 4.1 6.0----30.06- 54.7-----
2024-02-24 03:12 amNNW 5.1 7.0----30.06- 54.5-----
2024-02-24 03:06 amNNW 5.1 8.0----30.06- 54.7-----
2024-02-24 03:00 am-------30.06-------
2024-02-24 02:54 am-------30.06-------
2024-02-24 02:48 amNNW 5.1 6.0----30.06- 54.5-----
2024-02-24 02:42 amNNW 5.1 6.0----30.06- 54.5-----
2024-02-24 02:36 amNNW 2.9 5.1----30.06- 54.5-----
2024-02-24 02:30 amNNW 4.1 5.1----30.06-------
2024-02-24 02:24 amNNW 2.9 4.1----30.06-------
2024-02-24 02:18 am-------30.06- 54.7-----
2024-02-24 02:12 am-------30.06- 54.1-----
2024-02-24 02:06 am-------30.06- 54.5-----
2024-02-24 02:00 am-------30.06-0.01------
2024-02-24 01:54 am-------30.06-------
2024-02-24 01:48 am N 1.9 2.9----30.06-------
2024-02-24 01:42 am N 2.9 4.1----30.06-------
2024-02-24 01:36 amNNW 2.9 4.1----30.06-------
2024-02-24 01:30 am N 2.9 4.1------------
2024-02-24 01:24 am N 2.9 4.1------------
2024-02-24 01:18 am N 2.9 4.1----30.07- 54.9-----
2024-02-24 01:12 am N 2.9 2.9----30.07- 54.9-----
2024-02-24 01:06 amNNE 2.9 5.1----30.07- 54.9-----
2024-02-24 01:00 am NE 4.1 5.1----30.07+0.00 55.0-----
2024-02-24 12:54 amNNE 2.9 2.9----30.07- 55.0-----
2024-02-24 12:48 amNNE 1.9 2.9----30.07- 54.9-----
2024-02-24 12:42 am N 1.9 2.9----30.07- 55.6-----
2024-02-24 12:36 am- 0.0 1.0----30.07- 55.8-----
2024-02-24 12:30 am-------30.08-------
2024-02-24 12:24 am- 0.0 1.9----30.08-------
2024-02-24 12:18 amENE 1.9 1.9----30.08-------
2024-02-24 12:12 am- 0.0 1.9----30.08-------
2024-02-24 12:06 amSSW 1.0 1.0----30.08-------
2024-02-24 12:00 am- 0.0 1.0------------
2024-02-23 11:54 pm SW 1.0 2.9------------
2024-02-23 11:48 pm W 2.9 2.9----30.08-------
2024-02-23 11:42 pm W 1.9 1.9----30.08-------
2024-02-23 11:36 pm- 0.0 1.9----30.08-------
2024-02-23 11:30 pmWSW 1.0 1.9----30.08-------
2024-02-23 11:24 pmWSW 1.0 1.9----30.08-------
2024-02-23 11:18 pm W 1.0 2.9----30.07- 56.3-----
2024-02-23 11:12 pm W 1.9 4.1----30.08- 56.3-----
2024-02-23 11:06 pm W 4.1 5.1----30.08- 56.3-----
2024-02-23 11:00 pm-------30.07+0.00 56.3-----
2024-02-23 10:54 pm-------30.07- 56.7-----
2024-02-23 10:48 pmWSW 1.9 2.9----30.07-------
2024-02-23 10:42 pm SW 1.9 2.9----30.07-------
2024-02-23 10:36 pmWSW 1.9 2.9----30.07-------
2024-02-23 10:30 pm-------30.07- 56.7-----
2024-02-23 10:24 pm-------30.07- 56.7-----
2024-02-23 10:18 pmSSW 4.1 5.1----30.07-------
2024-02-23 10:12 pmSSW 4.1 5.1----30.07-------
2024-02-23 10:06 pmSSW 4.1 5.1----30.07-------
2024-02-23 10:00 pmSSW 2.9 5.1----30.07+0.00 56.7-----
2024-02-23 09:54 pm SW 2.9 4.1----30.07- 56.8-----
2024-02-23 09:48 pm SW 1.9 4.1----30.07-------
2024-02-23 09:42 pmSSW 4.1 5.1----30.07-------
2024-02-23 09:36 pmSSW 4.1 5.1----30.07-------
2024-02-23 09:30 pmSSW 4.1 5.1----30.07- 57.0-----
2024-02-23 09:24 pmSSW 2.9 6.0----30.07- 57.0-----
2024-02-23 09:18 pmSSW 4.1 6.0----30.07- 57.4-----
2024-02-23 09:12 pmSSW 5.1 6.0----30.07- 57.6-----
2024-02-23 09:06 pmSSW 4.1 5.1----30.07- 57.6-----
2024-02-23 09:00 pm S 2.9 5.1----30.07+0.01------
2024-02-23 08:54 pmSSW 4.1 5.1----30.07-------
2024-02-23 08:48 pm S 2.9 4.1----30.07- 58.3-----
2024-02-23 08:42 pm S 2.9 2.9----30.07- 59.0-----
2024-02-23 08:36 pm S 1.9 2.9----30.07- 59.0-----
2024-02-23 08:30 pm S 2.9 4.1----30.07- 59.2-----
2024-02-23 08:24 pm SW 2.9 4.1----30.07- 60.1-----
2024-02-23 08:18 pm S 1.0 4.1----30.07- 61.9-----
2024-02-23 08:12 pm SE 1.9 6.0----30.07- 62.4-----
2024-02-23 08:06 pmESE 4.1 5.1----30.07- 62.1-----
2024-02-23 08:00 pm E 4.1 6.0----30.07+0.01 62.2-----
2024-02-23 07:54 pm E 2.9 5.1----30.07- 61.5-----